Location: Perryvale
(54.4667°N, 113.3833°W)
Time: 00:48:04
(UTC+00:00)

Vanguard 1 - Pass Details

Date: 24 May 2024
Orbit: 652 x 3825 km, 34.2° (Epoch: 13 June)

Event Time Altitude Azimuth Distance (km) Brightness Sun altitude
Rises 08:39:19 0° 265° (W) 5,942 13.8 -13.2°
Reaches altitude 10° 08:43:44 10° 253° (WSW) 5,381 13.5 -13.0°
Maximum altitude 08:56:18 26° 206° (SSW) 5,124 13.1 -12.4°
Drops below altitude 10° 09:12:24 10° 162° (SSE) 6,911 13.9 -11.5°
Sets 09:19:23 0° 151° (SSE) 7,926 14.3 -11.1°
